This is the latest recevied weather packets stored in our database for station/object N4BBA. If no packets are shown the sender has not sent any weather packets the latest 10 day(s).
| Time | Temp. | Humidity | Pressure | Rain* | Wind** | Luminosity | Snow |
|---|---|---|---|---|---|---|---|
| 1777847981 | 19.44° C | 33% | 1015.5 hPa | 0 mm | - | 134 W/m² | - |
| 1777847679 | 19.44° C | 33% | 1015.4 hPa | 0 mm | - | 146 W/m² | - |
| 1777847374 | 20° C | 33% | 1015.4 hPa | 0 mm | - | 161 W/m² | - |
| 1777847073 | 19.44° C | 32% | 1015.4 hPa | 0 mm | - | 175 W/m² | - |
| 1777846771 | 20° C | 31% | 1015.5 hPa | 0 mm | - | 190 W/m² | - |
| 1777846469 | 20° C | 32% | 1015.3 hPa | 0 mm | - | 205 W/m² | - |
| 1777846165 | 20° C | 32% | 1015.3 hPa | 0 mm | - | 223 W/m² | - |
| 1777845862 | 20° C | 32% | 1015.3 hPa | 0 mm | - | 241 W/m² | - |
| 1777845559 | 20° C | 32% | 1015.3 hPa | 0 mm | - | 257 W/m² | - |
| 1777845256 | 20° C | 32% | 1015.2 hPa | 0 mm | - | 269 W/m² | - |
| 1777844954 | 20° C | 32% | 1015.3 hPa | 0 mm | - | 285 W/m² | - |
| 1777844651 | 20° C | 32% | 1015.3 hPa | 0 mm | - | 302 W/m² | - |
| 1777844348 | 19.44° C | 32% | 1015.1 hPa | 0 mm | - | 319 W/m² | - |
| 1777844046 | 20° C | 33% | 1015.4 hPa | 0 mm | - | 336 W/m² | - |
| 1777843742 | 20.56° C | 32% | 1015.2 hPa | 0 mm | - | 358 W/m² | - |
| 1777843440 | 20° C | 32% | 1015.1 hPa | 0 mm | - | 375 W/m² | - |
| 1777843137 | 20.56° C | 31% | 1015.3 hPa | 0 mm | - | 394 W/m² | - |
| 1777842834 | 20.56° C | 31% | 1015.4 hPa | 0 mm | - | 411 W/m² | - |
| 1777842529 | 20° C | 32% | 1015.5 hPa | 0 mm | - | 429 W/m² | - |
| 1777842227 | 20.56° C | 32% | 1015.3 hPa | 0 mm | - | 445 W/m² | - |
| 1777841921 | 20° C | 31% | 1015.3 hPa | 0 mm | - | 463 W/m² | - |
| 1777841618 | 20° C | 31% | 1015.3 hPa | 0 mm | - | 479 W/m² | - |
| 1777841315 | 20° C | 31% | 1015.5 hPa | 0 mm | - | 495 W/m² | - |
| 1777841012 | 20° C | 32% | 1015.6 hPa | 0 mm | - | 515 W/m² | - |
| 1777840709 | 20.56° C | 32% | 1015.4 hPa | 0 mm | - | 528 W/m² | - |
* Rain latest hour (hover to see other rain measurements)
** Current wind speed in m/s (hover to see current wind gust speed)